TAM3119 SBGR-SBCG

Flight info

Callsign TAM3119
Flight time 1h 26m
Altitude 36000
Route EGEVA UM415 FIGOS
Aircraft A21N/M-SDE3FGHIRWY/LB1

Departure

Time 2026-04-25 02:52
Airport São Paulo/Guarulhos–Governor André Franco Montoro International Airport (SBGR)

Arrival

Time 2026-04-25 04:18
Airport Campo Grande Airport (SBCG)
Time Latitude Longitude Altitude Speed Heading
2026-04-25 02:21 -23.42866 -46.48387 2467 ft 0 kts 85°
2026-04-25 02:41 -23.42870 -46.48432 2467 ft 1 kts 83°
2026-04-25 02:41 -23.42870 -46.48435 2467 ft 0 kts 84°
2026-04-25 02:43 -23.42871 -46.48438 2467 ft 0 kts 115°
2026-04-25 02:44 -23.42862 -46.48447 2467 ft 2 kts 134°
2026-04-25 02:44 -23.42852 -46.48460 2467 ft 2 kts 149°
2026-04-25 02:44 -23.42838 -46.48466 2467 ft 2 kts 169°
2026-04-25 02:44 -23.42825 -46.48466 2467 ft 0 kts 185°
2026-04-25 02:45 -23.42823 -46.48466 2467 ft 0 kts 184°
2026-04-25 02:47 -23.42826 -46.48466 2467 ft 1 kts 184°
2026-04-25 02:48 -23.42846 -46.48467 2467 ft 4 kts 180°
2026-04-25 02:48 -23.42883 -46.48468 2466 ft 5 kts 185°
2026-04-25 02:48 -23.42925 -46.48480 2466 ft 6 kts 198°
2026-04-25 02:48 -23.42974 -46.48489 2466 ft 7 kts 178°
2026-04-25 02:49 -23.43028 -46.48487 2466 ft 8 kts 176°
2026-04-25 02:49 -23.43085 -46.48473 2466 ft 8 kts 165°
2026-04-25 02:49 -23.43146 -46.48454 2466 ft 9 kts 162°
2026-04-25 02:49 -23.43211 -46.48432 2466 ft 10 kts 162°
2026-04-25 02:50 -23.43273 -46.48412 2466 ft 5 kts 163°
2026-04-25 02:50 -23.43313 -46.48399 2466 ft 6 kts 163°
2026-04-25 02:50 -23.43358 -46.48384 2466 ft 7 kts 162°
2026-04-25 02:50 -23.43407 -46.48367 2466 ft 7 kts 162°
2026-04-25 02:51 -23.43425 -46.48328 2466 ft 7 kts 63°
2026-04-25 02:51 -23.43410 -46.48272 2466 ft 8 kts 74°
2026-04-25 02:51 -23.43357 -46.48075 2466 ft 60 kts 73°
2026-04-25 02:51 -23.43171 -46.47384 2467 ft 127 kts 71°
2026-04-25 02:52 -23.42860 -46.46237 2484 ft 180 kts 73°
2026-04-25 02:52 -23.42504 -46.44937 3106 ft 179 kts 73°
2026-04-25 02:52 -23.42149 -46.43644 3624 ft 183 kts 73°
2026-04-25 02:52 -23.41762 -46.42290 3991 ft 195 kts 71°
2026-04-25 02:53 -23.41328 -46.40832 4292 ft 210 kts 71°
2026-04-25 02:53 -23.40866 -46.39260 4592 ft 227 kts 72°
2026-04-25 02:53 -23.40371 -46.37521 4847 ft 248 kts 75°
2026-04-25 02:53 -23.40242 -46.35599 5181 ft 267 kts 97°
2026-04-25 02:54 -23.40751 -46.33612 5689 ft 278 kts 109°
2026-04-25 02:54 -23.41427 -46.31620 6359 ft 283 kts 110°
2026-04-25 02:54 -23.42115 -46.29602 7048 ft 287 kts 110°
2026-04-25 02:54 -23.42829 -46.27581 7770 ft 289 kts 116°
2026-04-25 02:55 -23.44092 -46.25907 8417 ft 291 kts 146°
2026-04-25 02:55 -23.45967 -46.25058 9094 ft 291 kts 173°
2026-04-25 02:55 -23.47963 -46.25167 9758 ft 290 kts 193°
2026-04-25 02:55 -23.49949 -46.25616 10378 ft 295 kts 193°
2026-04-25 02:56 -23.52030 -46.26085 10701 ft 310 kts 194°
2026-04-25 02:56 -23.54076 -46.26918 10943 ft 323 kts 214°
2026-04-25 02:56 -23.55737 -46.28634 11229 ft 334 kts 236°
2026-04-25 02:56 -23.56669 -46.30944 11699 ft 338 kts 257°
2026-04-25 02:57 -23.57146 -46.33440 12282 ft 340 kts 259°
2026-04-25 02:57 -23.57623 -46.35974 12815 ft 343 kts 258°
2026-04-25 02:57 -23.58110 -46.38511 13302 ft 346 kts 258°
2026-04-25 02:57 -23.58593 -46.41102 13793 ft 349 kts 262°
2026-04-25 02:58 -23.58472 -46.43741 14231 ft 352 kts 285°
2026-04-25 02:58 -23.57652 -46.46211 14775 ft 352 kts 291°
2026-04-25 02:58 -23.56711 -46.48676 15262 ft 353 kts 292°
2026-04-25 02:58 -23.55776 -46.51169 15722 ft 355 kts 291°
2026-04-25 02:59 -23.54865 -46.53684 16181 ft 357 kts 291°
2026-04-25 02:59 -23.53975 -46.56208 16618 ft 359 kts 290°
2026-04-25 02:59 -23.53091 -46.58759 17071 ft 359 kts 290°
2026-04-25 02:59 -23.52212 -46.61327 17512 ft 360 kts 290°
2026-04-25 03:00 -23.51347 -46.63868 17940 ft 361 kts 289°
2026-04-25 03:00 -23.50470 -46.66456 18350 ft 363 kts 290°
2026-04-25 03:00 -23.49598 -46.69036 18744 ft 365 kts 290°
2026-04-25 03:00 -23.48722 -46.71632 19131 ft 367 kts 290°
2026-04-25 03:01 -23.47834 -46.74264 19510 ft 369 kts 290°
2026-04-25 03:01 -23.46944 -46.76897 19897 ft 370 kts 289°
2026-04-25 03:01 -23.46059 -46.79520 20279 ft 372 kts 289°
2026-04-25 03:01 -23.45164 -46.82168 20645 ft 374 kts 289°
2026-04-25 03:02 -23.44265 -46.84829 21011 ft 375 kts 289°
2026-04-25 03:02 -23.43366 -46.87484 21364 ft 377 kts 289°
2026-04-25 03:02 -23.42459 -46.90162 21728 ft 378 kts 289°
2026-04-25 03:02 -23.41551 -46.92844 22077 ft 380 kts 289°
2026-04-25 03:03 -23.40640 -46.95531 22419 ft 381 kts 289°
2026-04-25 03:03 -23.39726 -46.98229 22771 ft 382 kts 289°
2026-04-25 03:03 -23.38796 -47.00972 23103 ft 384 kts 289°
2026-04-25 03:03 -23.37876 -47.03685 23428 ft 385 kts 289°
2026-04-25 03:04 -23.36948 -47.06415 23750 ft 387 kts 289°
2026-04-25 03:04 -23.36007 -47.09185 24062 ft 389 kts 289°
2026-04-25 03:04 -23.35073 -47.11931 24369 ft 390 kts 289°
2026-04-25 03:05 -23.33176 -47.17503 24999 ft 393 kts 289°
2026-04-25 03:05 -23.32229 -47.20284 25283 ft 395 kts 289°
2026-04-25 03:05 -23.31277 -47.23076 25564 ft 397 kts 289°
2026-04-25 03:05 -23.30311 -47.25906 25851 ft 398 kts 289°
2026-04-25 03:06 -23.29347 -47.28730 26138 ft 400 kts 289°
2026-04-25 03:06 -23.28383 -47.31554 26395 ft 401 kts 289°
2026-04-25 03:06 -23.27407 -47.34413 26647 ft 403 kts 289°
2026-04-25 03:06 -23.26427 -47.37276 26911 ft 405 kts 289°
2026-04-25 03:07 -23.25438 -47.40165 27162 ft 406 kts 289°
2026-04-25 03:07 -23.24458 -47.43029 27415 ft 408 kts 289°
2026-04-25 03:07 -23.23464 -47.45931 27672 ft 409 kts 289°
2026-04-25 03:07 -23.22477 -47.48808 27912 ft 411 kts 289°
2026-04-25 03:08 -23.21471 -47.51741 28152 ft 412 kts 289°
2026-04-25 03:08 -23.20477 -47.54636 28401 ft 413 kts 289°
2026-04-25 03:08 -23.19465 -47.57589 28621 ft 415 kts 289°
2026-04-25 03:08 -23.18590 -47.60597 28832 ft 417 kts 284°
2026-04-25 03:09 -23.17950 -47.63655 29052 ft 419 kts 280°
2026-04-25 03:09 -23.17545 -47.66795 29276 ft 421 kts 276°
2026-04-25 03:09 -23.17360 -47.69996 29535 ft 423 kts 273°
2026-04-25 03:09 -23.17236 -47.73171 29777 ft 424 kts 272°
2026-04-25 03:10 -23.17120 -47.76366 30021 ft 426 kts 272°
2026-04-25 03:10 -23.17004 -47.79556 30258 ft 427 kts 272°
2026-04-25 03:10 -23.16885 -47.82812 30520 ft 428 kts 272°
2026-04-25 03:10 -23.16766 -47.86016 30869 ft 427 kts 272°
2026-04-25 03:11 -23.16643 -47.89254 31257 ft 425 kts 272°
2026-04-25 03:11 -23.16522 -47.92429 31634 ft 423 kts 272°
2026-04-25 03:11 -23.16401 -47.95600 31982 ft 422 kts 272°
2026-04-25 03:11 -23.16279 -47.98796 32337 ft 421 kts 272°
2026-04-25 03:12 -23.16157 -48.01952 32679 ft 420 kts 272°
2026-04-25 03:12 -23.16035 -48.05104 33042 ft 419 kts 272°
2026-04-25 03:12 -23.15914 -48.08250 33378 ft 418 kts 272°
2026-04-25 03:12 -23.15791 -48.11396 33721 ft 417 kts 272°
2026-04-25 03:13 -23.15667 -48.14536 34054 ft 416 kts 271°
2026-04-25 03:13 -23.15543 -48.17685 34389 ft 415 kts 272°
2026-04-25 03:13 -23.15419 -48.20806 34671 ft 416 kts 271°
2026-04-25 03:13 -23.15293 -48.23934 34932 ft 416 kts 271°
2026-04-25 03:14 -23.15167 -48.27096 35162 ft 417 kts 272°
2026-04-25 03:14 -23.15041 -48.30231 35380 ft 418 kts 271°
2026-04-25 03:14 -23.14913 -48.33400 35602 ft 418 kts 271°
2026-04-25 03:14 -23.14786 -48.36524 35798 ft 419 kts 271°
2026-04-25 03:15 -23.14656 -48.39703 36000 ft 419 kts 271°
2026-04-25 03:15 -23.14526 -48.42860 36074 ft 421 kts 271°
2026-04-25 03:15 -23.14232 -48.49190 36088 ft 421 kts 274°
2026-04-25 03:16 -23.13471 -48.55508 36096 ft 422 kts 279°
2026-04-25 03:16 -23.12116 -48.61691 36099 ft 423 kts 284°
2026-04-25 03:17 -23.10280 -48.67709 36100 ft 423 kts 287°
2026-04-25 03:17 -23.08356 -48.73787 36103 ft 423 kts 287°
2026-04-25 03:18 -23.06439 -48.79831 36105 ft 424 kts 287°
2026-04-25 03:18 -23.04522 -48.85867 36105 ft 423 kts 287°
2026-04-25 03:19 -23.02601 -48.91901 36107 ft 424 kts 287°
2026-04-25 03:19 -23.00674 -48.97948 36110 ft 424 kts 287°
2026-04-25 03:20 -22.98746 -49.03990 36114 ft 424 kts 288°
2026-04-25 03:20 -22.96820 -49.10015 36112 ft 424 kts 287°
2026-04-25 03:21 -22.94879 -49.16037 36106 ft 425 kts 288°
2026-04-25 03:21 -22.92715 -49.21987 36102 ft 424 kts 290°
2026-04-25 03:22 -22.90530 -49.27932 36097 ft 424 kts 290°
2026-04-25 03:22 -22.88544 -49.33949 36093 ft 424 kts 287°
2026-04-25 03:23 -22.86682 -49.40006 36087 ft 424 kts 287°
2026-04-25 03:23 -22.84818 -49.46063 36086 ft 424 kts 287°
2026-04-25 03:24 -22.82840 -49.52107 36083 ft 424 kts 288°
2026-04-25 03:24 -22.80814 -49.58087 36077 ft 424 kts 288°
2026-04-25 03:25 -22.78786 -49.64106 36068 ft 425 kts 288°
2026-04-25 03:25 -22.76771 -49.70097 36067 ft 425 kts 288°
2026-04-25 03:26 -22.74743 -49.76125 36061 ft 425 kts 288°
2026-04-25 03:26 -22.72720 -49.82127 36060 ft 424 kts 288°
2026-04-25 03:27 -22.70699 -49.88100 36064 ft 424 kts 289°
2026-04-25 03:27 -22.68664 -49.94112 36062 ft 425 kts 288°
2026-04-25 03:28 -22.66640 -50.00095 36061 ft 425 kts 288°
2026-04-25 03:28 -22.64601 -50.06113 36058 ft 426 kts 288°
2026-04-25 03:29 -22.62560 -50.12132 36055 ft 425 kts 288°
2026-04-25 03:29 -22.60544 -50.18100 36053 ft 425 kts 289°
2026-04-25 03:30 -22.58514 -50.24098 36048 ft 425 kts 288°
2026-04-25 03:30 -22.56456 -50.30092 36045 ft 425 kts 289°
2026-04-25 03:31 -22.54389 -50.36079 36043 ft 426 kts 289°
2026-04-25 03:31 -22.52327 -50.42051 36045 ft 426 kts 289°
2026-04-25 03:32 -22.50260 -50.48035 36041 ft 425 kts 289°
2026-04-25 03:32 -22.48188 -50.54026 36039 ft 426 kts 289°
2026-04-25 03:33 -22.46119 -50.59999 36038 ft 426 kts 289°
2026-04-25 03:33 -22.44034 -50.66013 36039 ft 425 kts 289°
2026-04-25 03:34 -22.41960 -50.71986 36038 ft 425 kts 289°
2026-04-25 03:34 -22.39880 -50.77971 36037 ft 426 kts 289°
2026-04-25 03:35 -22.37803 -50.83939 36038 ft 425 kts 289°
2026-04-25 03:35 -22.35723 -50.89908 36034 ft 425 kts 289°
2026-04-25 03:36 -22.33636 -50.95888 36033 ft 426 kts 290°
2026-04-25 03:36 -22.31551 -51.01852 36027 ft 427 kts 290°
2026-04-25 03:37 -22.29449 -51.07857 36019 ft 427 kts 289°
2026-04-25 03:37 -22.27360 -51.13821 36016 ft 427 kts 290°
2026-04-25 03:38 -22.25251 -51.19834 36013 ft 426 kts 290°
2026-04-25 03:38 -22.23164 -51.25776 36011 ft 426 kts 290°
2026-04-25 03:39 -22.21063 -51.31752 36010 ft 426 kts 289°
2026-04-25 03:39 -22.18956 -51.37739 36011 ft 426 kts 290°
2026-04-25 03:40 -22.16844 -51.43742 36011 ft 427 kts 289°
2026-04-25 03:40 -22.14790 -51.49718 36012 ft 427 kts 289°
2026-04-25 03:41 -22.12734 -51.55721 36012 ft 428 kts 289°
2026-04-25 03:41 -22.10675 -51.61721 36012 ft 428 kts 289°
2026-04-25 03:42 -22.08603 -51.67743 36013 ft 428 kts 290°
2026-04-25 03:42 -22.06534 -51.73752 36013 ft 428 kts 289°
2026-04-25 03:43 -22.04458 -51.79773 36012 ft 428 kts 289°
2026-04-25 03:43 -22.02395 -51.85751 36010 ft 428 kts 290°
2026-04-25 03:44 -22.00318 -51.91758 36008 ft 428 kts 290°
2026-04-25 03:44 -21.98249 -51.97741 36004 ft 428 kts 290°
2026-04-25 03:45 -21.96179 -52.03712 36000 ft 428 kts 290°
2026-04-25 03:45 -21.94083 -52.09748 35998 ft 429 kts 290°
2026-04-25 03:46 -21.92006 -52.15730 35995 ft 429 kts 290°
2026-04-25 03:46 -21.89909 -52.21762 35993 ft 429 kts 289°
2026-04-25 03:47 -21.87815 -52.27774 35990 ft 429 kts 290°
2026-04-25 03:47 -21.85705 -52.33796 35991 ft 429 kts 290°
2026-04-25 03:48 -21.83611 -52.39770 35992 ft 429 kts 290°
2026-04-25 03:48 -21.81514 -52.45748 35994 ft 430 kts 290°
2026-04-25 03:49 -21.79396 -52.51783 35996 ft 429 kts 290°
2026-04-25 03:49 -21.77292 -52.57771 35997 ft 430 kts 290°
2026-04-25 03:50 -21.75186 -52.63763 35998 ft 430 kts 290°
2026-04-25 03:50 -21.73053 -52.69823 36001 ft 430 kts 290°
2026-04-25 03:51 -21.70926 -52.75853 36001 ft 431 kts 290°
2026-04-25 03:51 -21.68802 -52.81853 36002 ft 430 kts 290°
2026-04-25 03:52 -21.66672 -52.87863 36004 ft 430 kts 290°
2026-04-25 03:52 -21.64545 -52.93867 36005 ft 430 kts 290°
2026-04-25 03:53 -21.62416 -52.99868 36007 ft 430 kts 290°
2026-04-25 03:53 -21.60282 -53.05881 36007 ft 430 kts 290°
2026-04-25 03:54 -21.58145 -53.11891 36006 ft 431 kts 290°
2026-04-25 03:54 -21.56021 -53.17858 36005 ft 432 kts 290°
2026-04-25 03:55 -21.54943 -53.20885 35569 ft 436 kts 290°
2026-04-25 03:55 -21.53861 -53.23927 34659 ft 438 kts 290°
2026-04-25 03:55 -21.52775 -53.26975 33872 ft 439 kts 290°
2026-04-25 03:55 -21.51684 -53.30034 33109 ft 439 kts 290°
2026-04-25 03:56 -21.50589 -53.33099 32390 ft 438 kts 290°
2026-04-25 03:56 -21.49503 -53.36136 31727 ft 437 kts 290°
2026-04-25 03:56 -21.48413 -53.39183 31055 ft 436 kts 291°
2026-04-25 03:56 -21.47330 -53.42204 30353 ft 436 kts 291°
2026-04-25 03:57 -21.46126 -53.45190 29736 ft 433 kts 295°
2026-04-25 03:57 -21.44754 -53.48046 29313 ft 430 kts 298°
2026-04-25 03:57 -21.43234 -53.50760 28872 ft 426 kts 302°
2026-04-25 03:57 -21.41561 -53.53380 28432 ft 424 kts 304°
2026-04-25 03:58 -21.39870 -53.55951 27988 ft 420 kts 304°
2026-04-25 03:58 -21.38181 -53.58512 27547 ft 417 kts 304°
2026-04-25 03:58 -21.36517 -53.61032 27064 ft 413 kts 304°
2026-04-25 03:58 -21.34851 -53.63553 26594 ft 409 kts 304°
2026-04-25 03:59 -21.33219 -53.66024 26122 ft 406 kts 304°
2026-04-25 03:59 -21.31595 -53.68483 25634 ft 403 kts 304°
2026-04-25 03:59 -21.29980 -53.70926 25158 ft 399 kts 304°
2026-04-25 03:59 -21.28372 -53.73358 24680 ft 396 kts 304°
2026-04-25 04:00 -21.26799 -53.75737 24213 ft 393 kts 304°
2026-04-25 04:00 -21.25223 -53.78120 23737 ft 390 kts 304°
2026-04-25 04:00 -21.23650 -53.80497 23282 ft 386 kts 304°
2026-04-25 04:00 -21.22114 -53.82816 22831 ft 383 kts 304°
2026-04-25 04:01 -21.20569 -53.85149 22375 ft 380 kts 304°
2026-04-25 04:01 -21.19046 -53.87447 21931 ft 378 kts 304°
2026-04-25 04:01 -21.17524 -53.89744 21480 ft 376 kts 304°
2026-04-25 04:01 -21.16004 -53.92037 21011 ft 375 kts 304°
2026-04-25 04:02 -21.14508 -53.94294 20544 ft 373 kts 304°
2026-04-25 04:02 -21.12996 -53.96572 20054 ft 373 kts 304°
2026-04-25 04:02 -21.11497 -53.98832 19557 ft 372 kts 304°
2026-04-25 04:02 -21.09986 -54.01109 19050 ft 372 kts 304°
2026-04-25 04:03 -21.08456 -54.03411 18529 ft 372 kts 304°
2026-04-25 04:03 -21.06972 -54.05644 18014 ft 372 kts 304°
2026-04-25 04:03 -21.05469 -54.07905 17510 ft 371 kts 304°
2026-04-25 04:03 -21.03967 -54.10163 17019 ft 370 kts 304°
2026-04-25 04:04 -21.03167 -54.11367 16759 ft 369 kts 304°
2026-04-25 04:04 -21.02212 -54.12803 16455 ft 368 kts 304°
2026-04-25 04:04 -21.00719 -54.15048 15963 ft 367 kts 304°
2026-04-25 04:04 -20.99249 -54.17255 15471 ft 366 kts 304°
2026-04-25 04:05 -20.97776 -54.19465 15107 ft 360 kts 304°
2026-04-25 04:05 -20.96333 -54.21629 14851 ft 351 kts 305°
2026-04-25 04:05 -20.94947 -54.23707 14541 ft 344 kts 305°
2026-04-25 04:05 -20.93548 -54.25803 14184 ft 339 kts 305°
2026-04-25 04:06 -20.92196 -54.27829 13841 ft 334 kts 305°
2026-04-25 04:06 -20.90840 -54.29859 13499 ft 329 kts 305°
2026-04-25 04:06 -20.89561 -54.31881 13163 ft 324 kts 302°
2026-04-25 04:06 -20.88402 -54.33931 12763 ft 314 kts 301°
2026-04-25 04:07 -20.87314 -54.35888 12274 ft 304 kts 301°
2026-04-25 04:07 -20.86245 -54.37815 11807 ft 297 kts 301°
2026-04-25 04:07 -20.85195 -54.39706 11437 ft 296 kts 301°
2026-04-25 04:07 -20.84134 -54.41612 11087 ft 295 kts 301°
2026-04-25 04:08 -20.83099 -54.43470 10757 ft 293 kts 302°
2026-04-25 04:08 -20.82059 -54.45338 10438 ft 290 kts 302°
2026-04-25 04:08 -20.81022 -54.47197 10118 ft 288 kts 302°
2026-04-25 04:08 -20.79998 -54.49033 9769 ft 287 kts 302°
2026-04-25 04:09 -20.78974 -54.50868 9406 ft 286 kts 302°
2026-04-25 04:09 -20.77970 -54.52666 9055 ft 284 kts 302°
2026-04-25 04:09 -20.76959 -54.54477 8703 ft 282 kts 302°
2026-04-25 04:09 -20.75948 -54.56287 8354 ft 281 kts 302°
2026-04-25 04:10 -20.74941 -54.58087 8005 ft 279 kts 302°
2026-04-25 04:10 -20.73952 -54.59858 7662 ft 277 kts 302°
2026-04-25 04:10 -20.72961 -54.61630 7316 ft 276 kts 302°
2026-04-25 04:10 -20.71975 -54.63393 6975 ft 274 kts 302°
2026-04-25 04:11 -20.70028 -54.66873 6275 ft 272 kts 302°
2026-04-25 04:11 -20.69050 -54.68620 5931 ft 270 kts 302°
2026-04-25 04:11 -20.68098 -54.70321 5604 ft 268 kts 302°
2026-04-25 04:12 -20.67107 -54.71969 5276 ft 256 kts 307°
2026-04-25 04:12 -20.66018 -54.73431 4966 ft 252 kts 313°
2026-04-25 04:12 -20.64838 -54.74821 4647 ft 248 kts 314°
2026-04-25 04:12 -20.63680 -54.76168 4328 ft 241 kts 314°
2026-04-25 04:13 -20.62574 -54.77454 4043 ft 232 kts 314°
2026-04-25 04:13 -20.61487 -54.78642 3955 ft 210 kts 327°
2026-04-25 04:13 -20.60217 -54.79115 3960 ft 182 kts
2026-04-25 04:13 -20.59060 -54.78745 3999 ft 167 kts 27°
2026-04-25 04:14 -20.58152 -54.78089 3987 ft 148 kts 37°
2026-04-25 04:14 -20.57369 -54.77387 4019 ft 146 kts 39°
2026-04-25 04:14 -20.56606 -54.76660 4010 ft 147 kts 40°
2026-04-25 04:14 -20.55844 -54.75923 3849 ft 146 kts 41°
2026-04-25 04:15 -20.55095 -54.75198 3672 ft 144 kts 41°
2026-04-25 04:15 -20.54343 -54.74472 3481 ft 144 kts 41°
2026-04-25 04:15 -20.53589 -54.73745 3306 ft 147 kts 41°
2026-04-25 04:15 -20.52822 -54.73006 3112 ft 147 kts 41°
2026-04-25 04:16 -20.52056 -54.72268 2916 ft 147 kts 41°
2026-04-25 04:16 -20.51299 -54.71538 2726 ft 146 kts 41°
2026-04-25 04:16 -20.50548 -54.70815 2540 ft 146 kts 41°
2026-04-25 04:16 -20.49782 -54.70076 2352 ft 145 kts 41°
2026-04-25 04:17 -20.49035 -54.69361 2186 ft 145 kts 42°
2026-04-25 04:17 -20.48284 -54.68636 2002 ft 144 kts 42°
2026-04-25 04:17 -20.47537 -54.67914 1852 ft 141 kts 42°
2026-04-25 04:17 -20.46896 -54.67295 1842 ft 103 kts 42°
2026-04-25 04:18 -20.46486 -54.66899 1842 ft 56 kts 42°
2026-04-25 04:18 -20.46272 -54.66692 1842 ft 28 kts 43°
2026-04-25 04:18 -20.46175 -54.66605 1842 ft 11 kts 20°
2026-04-25 04:18 -20.46099 -54.66621 1842 ft 11 kts 340°
2026-04-25 04:19 -20.46037 -54.66646 1842 ft 8 kts 340°
2026-04-25 04:19 -20.45980 -54.66668 1842 ft 9 kts 340°
2026-04-25 04:19 -20.45919 -54.66692 1842 ft 9 kts 339°
2026-04-25 04:19 -20.45860 -54.66716 1842 ft 7 kts 333°
2026-04-25 04:20 -20.45835 -54.66761 1842 ft 7 kts 274°
2026-04-25 04:20 -20.45839 -54.66820 1842 ft 8 kts 264°
2026-04-25 04:20 -20.45845 -54.66886 1841 ft 9 kts 264°
2026-04-25 04:20 -20.45846 -54.66917 1841 ft 2 kts 297°
2026-04-25 04:21 -20.45824 -54.66928 1842 ft 4 kts 349°
2026-04-25 04:21 -20.45803 -54.66931 1842 ft 1 kts 353°
2026-04-25 04:21 -20.45799 -54.66932 1842 ft 0 kts 353°